| time (UTC) | temp F | wind direction | speed MPH | gust MPH | rain 1hr in | rain 24hr in | rain mn in | humidity % | barometer mb |
| 20260508102631 | 52 | 83 | 0.0 | 1.0 | 0.00 | 0.00 | 0.00 | 52 | 1009.3 |
| 20260508102153 | 53 | 83 | 0.0 | 1.0 | 0.00 | 0.00 | 0.00 | 52 | 1009.3 |
| 20260508101624 | 53 | 83 | 0.0 | 2.0 | 0.00 | 0.00 | 0.00 | 52 | 1009.4 |
| 20260508101146 | 53 | 83 | 0.0 | 2.0 | 0.00 | 0.00 | 0.00 | 51 | 1009.6 |
| 20260508100614 | 53 | 81 | 0.0 | 4.0 | 0.00 | 0.00 | 0.00 | 50 | 1009.9 |
| 20260508100142 | 54 | 81 | 0.0 | 4.0 | 0.00 | 0.00 | 0.00 | 49 | 1010.0 |
| 20260508095630 | 54 | 75 | 2.0 | 5.0 | 0.00 | 0.00 | 0.00 | 48 | 1009.9 |
| 20260508095152 | 54 | 87 | 2.0 | 5.0 | 0.00 | 0.00 | 0.00 | 47 | 1010.0 |
| 20260508094620 | 54 | 73 | 2.0 | 5.0 | 0.00 | 0.00 | 0.00 | 48 | 1009.9 |
| 20260508094123 | 54 | 59 | 2.0 | 4.0 | 0.00 | 0.00 | 0.00 | 47 | 1009.8 |
| 20260508093646 | 54 | 71 | 1.0 | 1.0 | 0.00 | 0.00 | 0.00 | 48 | 1009.6 |
| 20260508093142 | 55 | 71 | 0.0 | 3.0 | 0.00 | 0.00 | 0.00 | 48 | 1009.7 |
| 20260508092628 | 55 | 71 | 1.0 | 3.0 | 0.00 | 0.00 | 0.00 | 47 | 1009.8 |
| 20260508092129 | 55 | 74 | 2.0 | 5.0 | 0.00 | 0.00 | 0.00 | 47 | 1009.9 |
| 20260508091652 | 55 | 57 | 3.0 | 5.0 | 0.00 | 0.00 | 0.00 | 46 | 1010.0 |
| 20260508091129 | 55 | 96 | 1.0 | 2.0 | 0.00 | 0.00 | 0.00 | 47 | 1010.0 |
| 20260508090654 | 56 | 96 | 1.0 | 2.0 | 0.00 | 0.00 | 0.00 | 46 | 1009.9 |
| 20260508090132 | 56 | 96 | 0.0 | 3.0 | 0.00 | 0.00 | 0.00 | 46 | 1010.0 |
| 20260508085618 | 56 | 96 | 2.0 | 3.0 | 0.00 | 0.00 | 0.00 | 45 | 1010.0 |
| 20260508085117 | 57 | 96 | 0.0 | 2.0 | 0.00 | 0.00 | 0.00 | 44 | 1010.2 |
| 20260508084623 | 57 | 96 | 1.0 | 2.0 | 0.00 | 0.00 | 0.00 | 42 | 1010.0 |
| 20260508084121 | 57 | 96 | 0.0 | 3.0 | 0.00 | 0.00 | 0.00 | 42 | 1010.0 |
| 20260508083625 | 57 | 96 | 0.0 | 3.0 | 0.00 | 0.00 | 0.00 | 41 | 1009.9 |
| 20260508083123 | 57 | 98 | 1.0 | 5.0 | 0.00 | 0.00 | 0.00 | 42 | 1009.7 |
| 20260508082629 | 56 | 181 | 1.0 | 3.0 | 0.00 | 0.00 | 0.00 | 44 | 1009.6 |
| 20260508082124 | 56 | 80 | 1.0 | 3.0 | 0.00 | 0.00 | 0.00 | 45 | 1009.6 |
| 20260508081626 | 56 | 57 | 2.0 | 3.0 | 0.00 | 0.00 | 0.00 | 44 | 1009.9 |
| 20260508081129 | 56 | 60 | 3.0 | 3.0 | 0.00 | 0.00 | 0.00 | 46 | 1009.9 |
| 20260508080616 | 57 | 14 | 0.0 | 1.0 | 0.00 | 0.00 | 0.00 | 46 | 1010.2 |
| 20260508080156 | 57 | 14 | 0.0 | 2.0 | 0.00 | 0.00 | 0.00 | 45 | 1010.3 |
| 20260508075619 | 57 | 14 | 0.0 | 2.0 | 0.00 | 0.00 | 0.00 | 44 | 1010.5 |
| 20260508075137 | 57 | 14 | 1.0 | 2.0 | 0.00 | 0.00 | 0.00 | 43 | 1010.3 |
| 20260508074620 | 57 | 70 | 0.0 | 1.0 | 0.00 | 0.00 | 0.00 | 43 | 1009.9 |
| 20260508074120 | 57 | 70 | 0.0 | 1.0 | 0.00 | 0.00 | 0.00 | 43 | 1010.1 |
| 20260508073627 | 57 | 70 | 0.0 | 3.0 | 0.00 | 0.00 | 0.00 | 43 | 1010.2 |
| 20260508073125 | 57 | 70 | 0.0 | 3.0 | 0.00 | 0.00 | 0.00 | 42 | 1009.8 |
| 20260508072634 | 57 | 48 | 1.0 | 5.0 | 0.00 | 0.00 | 0.00 | 43 | 1009.8 |
| 20260508072113 | 56 | 61 | 1.0 | 5.0 | 0.00 | 0.00 | 0.00 | 44 | 1009.8 |
| 20260508071623 | 56 | 63 | 1.0 | 3.0 | 0.00 | 0.00 | 0.00 | 46 | 1009.9 |
| 20260508071122 | 56 | 63 | 0.0 | 0.0 | 0.00 | 0.00 | 0.00 | 45 | 1010.2 |
| 20260508070626 | 56 | 63 | 0.0 | 0.0 | 0.00 | 0.00 | 0.00 | 46 | 1010.1 |
| 20260508070125 | 56 | 63 | 0.0 | 0.0 | 0.00 | 0.00 | 0.00 | 45 | 1010.1 |
| 20260508065630 | 56 | 63 | 0.0 | 0.0 | 0.00 | 0.00 | 0.00 | 45 | 1010.2 |
| 20260508065130 | 57 | 63 | 0.0 | 0.0 | 0.00 | 0.00 | 0.00 | 46 | 1010.2 |
| 20260508064653 | 57 | 63 | 0.0 | 1.0 | 0.00 | 0.00 | 0.00 | 45 | 1010.1 |
| 20260508064132 | 57 | 63 | 0.0 | 2.0 | 0.00 | 0.00 | 0.00 | 44 | 1010.3 |
| 20260508063635 | 57 | 63 | 0.0 | 2.0 | 0.00 | 0.00 | 0.00 | 43 | 1010.4 |
| 20260508063135 | 57 | 63 | 1.0 | 2.0 | 0.00 | 0.00 | 0.00 | 41 | 1010.4 |
| 20260508062619 | 57 | 63 | 0.0 | 1.0 | 0.00 | 0.00 | 0.00 | 41 | 1010.4 |
| 20260508062137 | 57 | 63 | 0.0 | 1.0 | 0.00 | 0.00 | 0.00 | 40 | 1010.3 |
| 20260508061641 | 57 | 63 | 0.0 | 2.0 | 0.00 | 0.00 | 0.00 | 41 | 1010.3 |
| 20260508061118 | 57 | 63 | 0.0 | 6.0 | 0.00 | 0.00 | 0.00 | 41 | 1010.1 |
| 20260508060630 | 57 | 64 | 0.0 | 6.0 | 0.00 | 0.00 | 0.00 | 41 | 1009.9 |
| 20260508060149 | 57 | 69 | 1.0 | 2.0 | 0.00 | 0.00 | 0.00 | 42 | 1010.0 |
| 20260508055631 | 57 | 69 | 2.0 | 2.0 | 0.00 | 0.00 | 0.00 | 42 | 1010.1 |
| 20260508055130 | 57 | 71 | 1.0 | 3.0 | 0.00 | 0.00 | 0.00 | 42 | 1010.2 |
| 20260508054633 | 57 | 71 | 0.0 | 3.0 | 0.00 | 0.00 | 0.00 | 42 | 1010.1 |
| 20260508054114 | 57 | 63 | 1.0 | 3.0 | 0.00 | 0.00 | 0.00 | 42 | 1010.1 |
| 20260508053622 | 57 | 69 | 0.0 | 3.0 | 0.00 | 0.00 | 0.00 | 43 | 1010.0 |
| 20260508053123 | 57 | 40 | 1.0 | 3.0 | 0.00 | 0.00 | 0.00 | 44 | 1010.0 |
| 20260508052626 | 56 | 40 | 1.0 | 3.0 | 0.00 | 0.00 | 0.00 | 45 | 1010.0 |
| 20260508052122 | 56 | 40 | 0.0 | 2.0 | 0.00 | 0.00 | 0.00 | 47 | 1010.0 |
| 20260508051627 | 56 | 40 | 0.0 | 2.0 | 0.00 | 0.00 | 0.00 | 48 | 1010.1 |
| 20260508051126 | 56 | 40 | 0.0 | 1.0 | 0.00 | 0.00 | 0.00 | 48 | 1010.1 |
| 20260508050617 | 56 | 40 | 0.0 | 2.0 | 0.00 | 0.00 | 0.00 | 48 | 1010.2 |
| 20260508050117 | 55 | 40 | 0.0 | 2.0 | 0.00 | 0.00 | 0.00 | 47 | 1010.2 |
| 20260508045625 | 55 | 40 | 0.0 | 2.0 | 0.00 | 0.00 | 0.00 | 49 | 1010.3 |
| 20260508045126 | 55 | 40 | 1.0 | 2.0 | 0.00 | 0.00 | 0.00 | 48 | 1010.4 |
| 20260508044631 | 55 | 40 | 0.0 | 2.0 | 0.00 | 0.00 | 0.00 | 49 | 1010.4 |
| 20260508044149 | 55 | 40 | 0.0 | 2.0 | 0.00 | 0.00 | 0.00 | 47 | 1010.4 |
| 20260508043631 | 55 | 40 | 0.0 | 1.0 | 0.00 | 0.00 | 0.00 | 48 | 1010.3 |
| 20260508043129 | 55 | 40 | 0.0 | 2.0 | 0.00 | 0.00 | 0.00 | 48 | 1010.2 |
| 20260508042633 | 56 | 40 | 1.0 | 2.0 | 0.00 | 0.00 | 0.00 | 48 | 1010.3 |
| 20260508042150 | 56 | 40 | 1.0 | 2.0 | 0.00 | 0.00 | 0.00 | 47 | 1010.3 |
| 20260508041633 | 56 | 40 | 1.0 | 2.0 | 0.00 | 0.00 | 0.00 | 47 | 1010.3 |
| 20260508041114 | 56 | 40 | 1.0 | 2.0 | 0.00 | 0.00 | 0.00 | 47 | 1010.4 |
| 20260508040622 | 56 | 40 | 0.0 | 1.0 | 0.00 | 0.00 | 0.00 | 46 | 1010.5 |
| 20260508040125 | 57 | 40 | 0.0 | 1.0 | 0.00 | 0.00 | 0.00 | 46 | 1010.4 |
| 20260508035629 | 57 | 40 | 0.0 | 2.0 | 0.00 | 0.00 | 0.00 | 46 | 1010.2 |
| 20260508035127 | 57 | 40 | 1.0 | 2.0 | 0.00 | 0.00 | 0.00 | 45 | 1010.2 |
| 20260508034633 | 57 | 40 | 1.0 | 2.0 | 0.00 | 0.00 | 0.00 | 44 | 1010.3 |
| 20260508034132 | 57 | 40 | 1.0 | 2.0 | 0.00 | 0.00 | 0.00 | 43 | 1010.3 |
| 20260508033621 | 58 | 40 | 1.0 | 2.0 | 0.00 | 0.00 | 0.00 | 43 | 1010.3 |
| 20260508033121 | 58 | 40 | 1.0 | 2.0 | 0.00 | 0.00 | 0.00 | 43 | 1010.3 |
| 20260508032626 | 58 | 40 | 1.0 | 2.0 | 0.00 | 0.00 | 0.00 | 43 | 1010.3 |
| 20260508032126 | 58 | 40 | 1.0 | 1.0 | 0.00 | 0.00 | 0.00 | 43 | 1010.4 |
| 20260508031630 | 58 | 40 | 0.0 | 1.0 | 0.00 | 0.00 | 0.00 | 43 | 1010.3 |
| 20260508031128 | 58 | 40 | 1.0 | 1.0 | 0.00 | 0.00 | 0.00 | 42 | 1010.3 |
| 20260508030633 | 59 | 40 | 0.0 | 1.0 | 0.00 | 0.00 | 0.00 | 42 | 1010.3 |
| 20260508030134 | 59 | 40 | 0.0 | 1.0 | 0.00 | 0.00 | 0.00 | 43 | 1010.2 |
| 20260508025624 | 59 | 40 | 0.0 | 1.0 | 0.00 | 0.00 | 0.00 | 41 | 1010.1 |
| 20260508025122 | 60 | 40 | 0.0 | 1.0 | 0.00 | 0.00 | 0.00 | 42 | 1010.2 |
| 20260508024626 | 60 | 40 | 0.0 | 2.0 | 0.00 | 0.00 | 0.00 | 41 | 1010.1 |
| 20260508024125 | 60 | 40 | 0.0 | 2.0 | 0.00 | 0.00 | 0.00 | 41 | 1010.1 |
| 20260508023631 | 60 | 40 | 1.0 | 1.0 | 0.00 | 0.00 | 0.00 | 39 | 1010.1 |
| 20260508023133 | 61 | 40 | 0.0 | 2.0 | 0.00 | 0.00 | 0.00 | 40 | 1010.0 |
| 20260508022618 | 61 | 40 | 1.0 | 2.0 | 0.00 | 0.00 | 0.00 | 39 | 1010.0 |
| 20260508022118 | 61 | 40 | 1.0 | 2.0 | 0.00 | 0.00 | 0.00 | 39 | 1009.9 |
| 20260508021643 | 62 | 40 | 1.0 | 2.0 | 0.00 | 0.00 | 0.00 | 39 | 1009.8 |
| 20260508021124 | 62 | 40 | 0.0 | 1.0 | 0.00 | 0.00 | 0.00 | 39 | 1009.8 |
| 20260508020627 | 63 | 40 | 0.0 | 2.0 | 0.00 | 0.00 | 0.00 | 38 | 1009.7 |
| 20260508020125 | 63 | 40 | 0.0 | 3.0 | 0.00 | 0.00 | 0.00 | 37 | 1009.6 |
| 20260508015630 | 64 | 40 | 1.0 | 3.0 | 0.00 | 0.00 | 0.00 | 36 | 1009.6 |
| 20260508015115 | 64 | 40 | 0.0 | 2.0 | 0.00 | 0.00 | 0.00 | 36 | 1009.6 |
| 20260508014622 | 64 | 40 | 1.0 | 2.0 | 0.00 | 0.00 | 0.00 | 34 | 1009.7 |
| 20260508014119 | 65 | 40 | 1.0 | 2.0 | 0.00 | 0.00 | 0.00 | 34 | 1009.6 |
| 20260508013624 | 65 | 40 | 1.0 | 2.0 | 0.00 | 0.00 | 0.00 | 34 | 1009.6 |
| 20260508013124 | 66 | 40 | 0.0 | 2.0 | 0.00 | 0.00 | 0.00 | 33 | 1009.5 |
| 20260508012631 | 66 | 40 | 0.0 | 2.0 | 0.00 | 0.00 | 0.00 | 33 | 1009.5 |
| 20260508012129 | 67 | 32 | 0.0 | 2.0 | 0.00 | 0.00 | 0.00 | 32 | 1009.4 |
| 20260508011634 | 67 | 32 | 1.0 | 2.0 | 0.00 | 0.00 | 0.00 | 32 | 1009.3 |
| 20260508011152 | 68 | 32 | 0.0 | 4.0 | 0.00 | 0.00 | 0.00 | 31 | 1009.3 |
| 20260508010636 | 68 | 32 | 1.0 | 4.0 | 0.00 | 0.00 | 0.00 | 30 | 1009.2 |
| 20260508010135 | 68 | 19 | 0.0 | 4.0 | 0.00 | 0.00 | 0.00 | 30 | 1009.1 |
| 20260508005622 | 68 | 70 | 0.0 | 3.0 | 0.00 | 0.00 | 0.00 | 29 | 1009.1 |
| 20260508005120 | 69 | 71 | 1.0 | 4.0 | 0.00 | 0.00 | 0.00 | 29 | 1009.0 |
| 20260508004625 | 69 | 38 | 2.0 | 4.0 | 0.00 | 0.00 | 0.00 | 28 | 1009.0 |
| 20260508004122 | 69 | 278 | 1.0 | 4.0 | 0.00 | 0.00 | 0.00 | 29 | 1009.0 |
| 20260508003628 | 69 | 268 | 1.0 | 5.0 | 0.00 | 0.00 | 0.00 | 28 | 1008.9 |
| 20260508003127 | 69 | 54 | 2.0 | 8.0 | 0.00 | 0.00 | 0.00 | 28 | 1008.8 |
| 20260508002631 | 70 | 316 | 5.0 | 8.0 | 0.00 | 0.00 | 0.00 | 29 | 1008.8 |
| 20260508002148 | 70 | 267 | 6.0 | 8.0 | 0.00 | 0.00 | 0.00 | 28 | 1008.7 |
| 20260508001613 | 71 | 38 | 5.0 | 8.0 | 0.00 | 0.00 | 0.00 | 29 | 1008.7 |
| 20260508001154 | 71 | 271 | 4.0 | 8.0 | 0.00 | 0.00 | 0.00 | 28 | 1008.7 |
| 20260508000619 | 72 | 275 | 5.0 | 7.0 | 0.00 | 0.00 | 0.00 | 28 | 1008.7 |
| 20260508000121 | 72 | 262 | 2.0 | 8.0 | 0.00 | 0.00 | 0.00 | 29 | 1008.7 |
| 20260507235628 | 72 | 337 | 3.0 | 8.0 | 0.00 | 0.00 | 0.00 | 29 | 1008.7 |
| 20260507235127 | 72 | 89 | 2.0 | 6.0 | 0.00 | 0.00 | 0.00 | 28 | 1008.7 |
| 20260507234631 | 72 | 293 | 3.0 | 6.0 | 0.00 | 0.00 | 0.00 | 28 | 1008.7 |
| 20260507234150 | 72 | 335 | 2.0 | 8.0 | 0.00 | 0.00 | 0.00 | 28 | 1008.8 |
| 20260507233632 | 72 | 333 | 4.0 | 8.0 | 0.00 | 0.00 | 0.00 | 28 | 1008.8 |
| 20260507233151 | 72 | 4 | 1.0 | 7.0 | 0.00 | 0.00 | 0.00 | 29 | 1008.7 |
| 20260507232635 | 72 | 303 | 1.0 | 8.0 | 0.00 | 0.00 | 0.00 | 28 | 1008.7 |
| 20260507232130 | 72 | 265 | 5.0 | 8.0 | 0.00 | 0.00 | 0.00 | 29 | 1008.8 |
| 20260507231654 | 72 | 255 | 3.0 | 8.0 | 0.00 | 0.00 | 0.00 | 28 | 1008.7 |
| 20260507231151 | 72 | 254 | 4.0 | 9.0 | 0.00 | 0.00 | 0.00 | 29 | 1008.7 |
| 20260507230631 | 72 | 4 | 3.0 | 9.0 | 0.00 | 0.00 | 0.00 | 29 | 1008.6 |
| 20260507230154 | 73 | 273 | 3.0 | 8.0 | 0.00 | 0.00 | 0.00 | 27 | 1008.7 |
| 20260507225641 | 73 | 58 | 2.0 | 8.0 | 0.00 | 0.00 | 0.00 | 28 | 1008.6 |
| 20260507225118 | 73 | 246 | 3.0 | 8.0 | 0.00 | 0.00 | 0.00 | 28 | 1008.7 |
| 20260507224622 | 73 | 253 | 2.0 | 8.0 | 0.00 | 0.00 | 0.00 | 27 | 1008.6 |
| 20260507224139 | 73 | 303 | 4.0 | 7.0 | 0.00 | 0.00 | 0.00 | 28 | 1008.7 |
| 20260507223622 | 73 | 351 | 4.0 | 8.0 | 0.00 | 0.00 | 0.00 | 28 | 1008.7 |
| 20260507223120 | 72 | 350 | 3.0 | 10.0 | 0.00 | 0.00 | 0.00 | 28 | 1008.7 |
| 20260507222625 | 72 | 19 | 6.0 | 10.0 | 0.00 | 0.00 | 0.00 | 28 | 1008.7 |
| 20260507222125 | 72 | 241 | 5.0 | 10.0 | 0.00 | 0.00 | 0.00 | 27 | 1008.8 |
| 20260507221633 | 72 | 339 | 2.0 | 11.0 | 0.00 | 0.00 | 0.00 | 29 | 1008.7 |
| 20260507221155 | 72 | 254 | 4.0 | 11.0 | 0.00 | 0.00 | 0.00 | 29 | 1008.7 |
| 20260507220617 | 73 | 37 | 2.0 | 5.0 | 0.00 | 0.00 | 0.00 | 28 | 1008.7 |
| 20260507220115 | 73 | 71 | 3.0 | 6.0 | 0.00 | 0.00 | 0.00 | 29 | 1008.8 |
| 20260507215621 | 73 | 289 | 2.0 | 7.0 | 0.00 | 0.00 | 0.00 | 30 | 1008.8 |
| 20260507215124 | 72 | 307 | 4.0 | 10.0 | 0.00 | 0.00 | 0.00 | 29 | 1008.8 |
| 20260507214631 | 72 | 30 | 6.0 | 10.0 | 0.00 | 0.00 | 0.00 | 28 | 1008.9 |
| 20260507214128 | 72 | 262 | 4.0 | 11.0 | 0.00 | 0.00 | 0.00 | 28 | 1008.9 |
| 20260507213632 | 72 | 354 | 5.0 | 11.0 | 0.00 | 0.00 | 0.00 | 29 | 1009.0 |
| 20260507213129 | 72 | 41 | 4.0 | 10.0 | 0.00 | 0.00 | 0.00 | 29 | 1009.0 |
| 20260507212652 | 72 | 328 | 5.0 | 10.0 | 0.00 | 0.00 | 0.00 | 28 | 1009.0 |
| 20260507212130 | 72 | 274 | 5.0 | 10.0 | 0.00 | 0.00 | 0.00 | 27 | 1009.0 |
| 20260507211654 | 73 | 250 | 3.0 | 10.0 | 0.00 | 0.00 | 0.00 | 26 | 1009.0 |
| 20260507211118 | 73 | 202 | 3.0 | 10.0 | 0.00 | 0.00 | 0.00 | 28 | 1009.1 |
| 20260507210642 | 73 | 265 | 3.0 | 7.0 | 0.00 | 0.00 | 0.00 | 28 | 1009.0 |
| 20260507210122 | 72 | 339 | 5.0 | 8.0 | 0.00 | 0.00 | 0.00 | 29 | 1009.1 |
| 20260507205647 | 72 | 300 | 3.0 | 10.0 | 0.00 | 0.00 | 0.00 | 30 | 1009.2 |
| 20260507205145 | 72 | 281 | 7.0 | 10.0 | 0.00 | 0.00 | 0.00 | 29 | 1009.1 |
| 20260507204630 | 72 | 269 | 5.0 | 10.0 | 0.00 | 0.00 | 0.00 | 31 | 1009.1 |
| 20260507204130 | 72 | 335 | 3.0 | 10.0 | 0.00 | 0.00 | 0.00 | 29 | 1009.3 |
| 20260507203634 | 72 | 274 | 5.0 | 8.0 | 0.00 | 0.00 | 0.00 | 32 | 1009.3 |
| 20260507203133 | 72 | 322 | 3.0 | 10.0 | 0.00 | 0.00 | 0.00 | 31 | 1009.4 |
| 20260507202656 | 72 | 277 | 8.0 | 10.0 | 0.00 | 0.00 | 0.00 | 30 | 1009.4 |
| 20260507202115 | 71 | 301 | 3.0 | 14.0 | 0.00 | 0.00 | 0.00 | 32 | 1009.4 |
| 20260507201622 | 71 | 255 | 4.0 | 14.0 | 0.00 | 0.00 | 0.00 | 29 | 1009.5 |
| 20260507201124 | 72 | 318 | 4.0 | 10.0 | 0.00 | 0.00 | 0.00 | 31 | 1009.5 |
| 20260507200628 | 71 | 244 | 4.0 | 10.0 | 0.00 | 0.00 | 0.00 | 33 | 1009.6 |
| 20260507200132 | 71 | 256 | 4.0 | 11.0 | 0.00 | 0.00 | 0.00 | 32 | 1009.6 |
| 20260507195657 | 71 | 258 | 7.0 | 11.0 | 0.00 | 0.00 | 0.00 | 29 | 1009.6 |
| 20260507195133 | 71 | 280 | 7.0 | 10.0 | 0.00 | 0.00 | 0.00 | 30 | 1009.6 |
| 20260507194620 | 70 | 224 | 4.0 | 8.0 | 0.00 | 0.00 | 0.00 | 36 | 1009.5 |
| 20260507194118 | 70 | 263 | 6.0 | 9.0 | 0.00 | 0.00 | 0.00 | 33 | 1009.6 |
| 20260507193625 | 71 | 262 | 5.0 | 9.0 | 0.00 | 0.00 | 0.00 | 34 | 1009.6 |
| 20260507193124 | 71 | 350 | 5.0 | 12.0 | 0.00 | 0.00 | 0.00 | 34 | 1009.6 |
| 20260507192626 | 71 | 239 | 5.0 | 11.0 | 0.00 | 0.00 | 0.00 | 36 | 1009.6 |
| 20260507192124 | 71 | 229 | 4.0 | 12.0 | 0.00 | 0.00 | 0.00 | 36 | 1009.6 |
| 20260507191627 | 71 | 276 | 5.0 | 11.0 | 0.00 | 0.00 | 0.00 | 36 | 1009.7 |
| 20260507191125 | 71 | 269 | 4.0 | 10.0 | 0.00 | 0.00 | 0.00 | 36 | 1009.6 |
| 20260507190650 | 70 | 316 | 5.0 | 10.0 | 0.00 | 0.00 | 0.00 | 37 | 1009.7 |
| 20260507190125 | 70 | 227 | 6.0 | 11.0 | 0.00 | 0.00 | 0.00 | 36 | 1009.8 |
| 20260507185653 | 70 | 296 | 5.0 | 11.0 | 0.00 | 0.00 | 0.00 | 36 | 1009.7 |
| 20260507185128 | 70 | 239 | 3.0 | 11.0 | 0.00 | 0.00 | 0.00 | 36 | 1009.7 |
| 20260507184631 | 70 | 156 | 8.0 | 11.0 | 0.00 | 0.00 | 0.00 | 37 | 1009.9 |
| 20260507184131 | 69 | 283 | 4.0 | 12.0 | 0.00 | 0.00 | 0.00 | 37 | 1009.9 |
| 20260507183634 | 69 | 216 | 6.0 | 12.0 | 0.00 | 0.00 | 0.00 | 36 | 1009.9 |
| 20260507183133 | 69 | 241 | 6.0 | 11.0 | 0.00 | 0.00 | 0.00 | 37 | 1010.0 |
| 20260507182619 | 68 | 233 | 4.0 | 12.0 | 0.00 | 0.00 | 0.00 | 38 | 1010.2 |
| 20260507182117 | 69 | 258 | 5.0 | 13.0 | 0.00 | 0.00 | 0.00 | 37 | 1010.3 |
| 20260507181622 | 69 | 216 | 3.0 | 13.0 | 0.00 | 0.00 | 0.00 | 37 | 1010.3 |
| 20260507181125 | 68 | 223 | 4.0 | 13.0 | 0.00 | 0.00 | 0.00 | 37 | 1010.3 |
| 20260507180631 | 68 | 250 | 7.0 | 15.0 | 0.00 | 0.00 | 0.00 | 38 | 1010.4 |
| 20260507180135 | 68 | 181 | 7.0 | 15.0 | 0.00 | 0.00 | 0.00 | 38 | 1010.4 |
| 20260507175620 | 68 | 292 | 5.0 | 14.0 | 0.00 | 0.00 | 0.00 | 37 | 1010.4 |
| 20260507175122 | 68 | 306 | 5.0 | 14.0 | 0.00 | 0.00 | 0.00 | 38 | 1010.6 |
| 20260507174628 | 68 | 223 | 6.0 | 11.0 | 0.00 | 0.00 | 0.00 | 38 | 1010.6 |
| 20260507174126 | 67 | 219 | 2.0 | 8.0 | 0.00 | 0.00 | 0.00 | 38 | 1010.6 |
| 20260507173631 | 67 | 230 | 4.0 | 8.0 | 0.00 | 0.00 | 0.00 | 39 | 1010.8 |
| 20260507173130 | 67 | 249 | 1.0 | 9.0 | 0.00 | 0.00 | 0.00 | 40 | 1010.8 |
| 20260507172618 | 66 | 333 | 4.0 | 9.0 | 0.00 | 0.00 | 0.00 | 40 | 1010.8 |
| 20260507172129 | 66 | 266 | 4.0 | 9.0 | 0.00 | 0.00 | 0.00 | 39 | 1010.9 |
| 20260507171619 | 66 | 277 | 4.0 | 12.0 | 0.00 | 0.00 | 0.00 | 41 | 1011.1 |
| 20260507171137 | 65 | 259 | 5.0 | 12.0 | 0.00 | 0.00 | 0.00 | 40 | 1011.1 |
| 20260507170626 | 65 | 301 | 7.0 | 12.0 | 0.00 | 0.00 | 0.00 | 41 | 1011.2 |
| 20260507170126 | 65 | 287 | 6.0 | 15.0 | 0.00 | 0.00 | 0.00 | 40 | 1011.2 |
| 20260507165650 | 65 | 253 | 4.0 | 15.0 | 0.00 | 0.00 | 0.00 | 39 | 1011.3 |
| 20260507165126 | 65 | 260 | 6.0 | 12.0 | 0.00 | 0.00 | 0.00 | 40 | 1011.3 |
| 20260507164630 | 64 | 287 | 4.0 | 9.0 | 0.00 | 0.00 | 0.00 | 41 | 1011.3 |
| 20260507164155 | 64 | 258 | 1.0 | 10.0 | 0.00 | 0.00 | 0.00 | 43 | 1011.4 |
| 20260507163619 | 64 | 267 | 5.0 | 10.0 | 0.00 | 0.00 | 0.00 | 43 | 1011.5 |
| 20260507163136 | 64 | 231 | 5.0 | 9.0 | 0.00 | 0.00 | 0.00 | 46 | 1011.6 |
| 20260507162624 | 64 | 108 | 5.0 | 7.0 | 0.00 | 0.00 | 0.00 | 45 | 1011.7 |
| 20260507162127 | 63 | 240 | 3.0 | 9.0 | 0.00 | 0.00 | 0.00 | 47 | 1011.7 |
| 20260507161632 | 62 | 231 | 2.0 | 9.0 | 0.00 | 0.00 | 0.00 | 48 | 1011.8 |
| 20260507161129 | 62 | 303 | 5.0 | 9.0 | 0.00 | 0.00 | 0.00 | 48 | 1011.8 |
| 20260507160656 | 61 | 248 | 4.0 | 10.0 | 0.00 | 0.00 | 0.00 | 50 | 1011.9 |
| 20260507160117 | 62 | 293 | 6.0 | 10.0 | 0.00 | 0.00 | 0.00 | 49 | 1012.1 |
| 20260507155624 | 62 | 232 | 3.0 | 9.0 | 0.00 | 0.00 | 0.00 | 49 | 1012.1 |
| 20260507155123 | 61 | 219 | 2.0 | 5.0 | 0.00 | 0.00 | 0.00 | 53 | 1012.2 |
| 20260507154632 | 60 | 225 | 2.0 | 6.0 | 0.00 | 0.00 | 0.00 | 53 | 1012.3 |
| 20260507154130 | 60 | 222 | 3.0 | 6.0 | 0.00 | 0.00 | 0.00 | 52 | 1012.3 |
| 20260507153633 | 60 | 218 | 2.0 | 8.0 | 0.00 | 0.00 | 0.00 | 54 | 1012.3 |
| 20260507153155 | 60 | 266 | 4.0 | 9.0 | 0.00 | 0.00 | 0.00 | 52 | 1012.4 |
| 20260507152616 | 59 | 204 | 4.0 | 9.0 | 0.00 | 0.00 | 0.00 | 55 | 1012.4 |
| 20260507152118 | 59 | 189 | 2.0 | 8.0 | 0.00 | 0.00 | 0.00 | 55 | 1012.4 |
| 20260507151623 | 58 | 233 | 5.0 | 8.0 | 0.00 | 0.00 | 0.00 | 56 | 1012.5 |
| 20260507151124 | 58 | 285 | 3.0 | 10.0 | 0.00 | 0.00 | 0.00 | 57 | 1012.6 |
| 20260507150630 | 58 | 187 | 7.0 | 10.0 | 0.00 | 0.00 | 0.00 | 57 | 1012.7 |
| 20260507150129 | 58 | 289 | 5.0 | 10.0 | 0.00 | 0.00 | 0.00 | 57 | 1012.7 |
| 20260507145633 | 57 | 247 | 4.0 | 10.0 | 0.00 | 0.00 | 0.00 | 60 | 1012.7 |
| 20260507145131 | 57 | 283 | 3.0 | 9.0 | 0.00 | 0.00 | 0.00 | 60 | 1012.7 |
| 20260507144635 | 56 | 212 | 3.0 | 9.0 | 0.00 | 0.00 | 0.00 | 60 | 1012.7 |
| 20260507144135 | 56 | 237 | 4.0 | 9.0 | 0.00 | 0.00 | 0.00 | 61 | 1012.7 |
| 20260507143619 | 56 | 258 | 5.0 | 11.0 | 0.00 | 0.00 | 0.00 | 63 | 1012.8 |
| 20260507143117 | 55 | 261 | 3.0 | 10.0 | 0.00 | 0.00 | 0.00 | 63 | 1012.8 |
| 20260507142625 | 55 | 255 | 3.0 | 12.0 | 0.00 | 0.00 | 0.00 | 63 | 1012.8 |
| 20260507142125 | 55 | 227 | 5.0 | 12.0 | 0.00 | 0.00 | 0.00 | 63 | 1012.9 |
| 20260507141649 | 55 | 223 | 2.0 | 8.0 | 0.00 | 0.00 | 0.00 | 64 | 1012.9 |
| 20260507141146 | 54 | 295 | 3.0 | 10.0 | 0.00 | 0.00 | 0.00 | 64 | 1013.0 |
| 20260507140624 | 54 | 272 | 5.0 | 12.0 | 0.00 | 0.00 | 0.00 | 65 | 1013.0 |
| 20260507140124 | 54 | 271 | 6.0 | 12.0 | 0.00 | 0.00 | 0.00 | 64 | 1013.1 |
| 20260507135629 | 53 | 277 | 5.0 | 10.0 | 0.00 | 0.00 | 0.00 | 65 | 1013.1 |
| 20260507135128 | 53 | 237 | 7.0 | 10.0 | 0.00 | 0.00 | 0.00 | 66 | 1013.1 |
| 20260507134654 | 53 | 264 | 5.0 | 11.0 | 0.00 | 0.00 | 0.00 | 67 | 1013.1 |
| 20260507134124 | 52 | 239 | 6.0 | 10.0 | 0.00 | 0.00 | 0.00 | 68 | 1013.2 |
| 20260507133646 | 52 | 271 | 6.0 | 9.0 | 0.00 | 0.00 | 0.00 | 69 | 1013.2 |
| 20260507133124 | 52 | 264 | 4.0 | 9.0 | 0.00 | 0.00 | 0.00 | 69 | 1013.1 |
| 20260507132648 | 51 | 193 | 5.0 | 8.0 | 0.00 | 0.00 | 0.00 | 71 | 1013.2 |
| 20260507132124 | 51 | 250 | 4.0 | 9.0 | 0.00 | 0.00 | 0.00 | 71 | 1013.1 |
| 20260507131629 | 50 | 195 | 2.0 | 10.0 | 0.00 | 0.00 | 0.00 | 72 | 1013.2 |
| 20260507131147 | 50 | 327 | 2.0 | 10.0 | 0.00 | 0.00 | 0.00 | 73 | 1013.3 |
| 20260507130633 | 50 | 307 | 5.0 | 10.0 | 0.00 | 0.00 | 0.00 | 74 | 1013.3 |
| 20260507130119 | 49 | 265 | 3.0 | 9.0 | 0.00 | 0.00 | 0.00 | 74 | 1013.3 |
| 20260507125624 | 49 | 262 | 7.0 | 9.0 | 0.00 | 0.00 | 0.00 | 75 | 1013.5 |
| 20260507125125 | 49 | 268 | 4.0 | 12.0 | 0.00 | 0.00 | 0.00 | 75 | 1013.6 |
| 20260507124649 | 48 | 266 | 4.0 | 12.0 | 0.00 | 0.00 | 0.00 | 76 | 1013.5 |
| 20260507124126 | 48 | 205 | 4.0 | 10.0 | 0.00 | 0.00 | 0.00 | 77 | 1013.5 |
| 20260507123629 | 47 | 281 | 6.0 | 10.0 | 0.00 | 0.00 | 0.00 | 77 | 1013.4 |
| 20260507123127 | 47 | 241 | 6.0 | 8.0 | 0.00 | 0.00 | 0.00 | 78 | 1013.5 |
| 20260507122633 | 47 | 246 | 6.0 | 8.0 | 0.00 | 0.00 | 0.00 | 78 | 1013.4 |
| 20260507122150 | 47 | 211 | 4.0 | 8.0 | 0.00 | 0.00 | 0.00 | 78 | 1013.5 |
| 20260507121632 | 46 | 230 | 2.0 | 6.0 | 0.00 | 0.00 | 0.00 | 79 | 1013.5 |
| 20260507121132 | 46 | 252 | 2.0 | 5.0 | 0.00 | 0.00 | 0.00 | 79 | 1013.6 |
| 20260507120635 | 46 | 282 | 2.0 | 5.0 | 0.00 | 0.00 | 0.00 | 79 | 1013.6 |
| 20260507120134 | 46 | 265 | 3.0 | 5.0 | 0.00 | 0.00 | 0.00 | 79 | 1013.5 |
| 20260507115617 | 46 | 291 | 4.0 | 6.0 | 0.00 | 0.00 | 0.00 | 79 | 1013.5 |
| 20260507115118 | 46 | 254 | 3.0 | 6.0 | 0.00 | 0.00 | 0.00 | 79 | 1013.5 |
| 20260507114625 | 46 | 222 | 2.0 | 5.0 | 0.00 | 0.00 | 0.00 | 79 | 1013.5 |
| 20260507114123 | 46 | 249 | 4.0 | 7.0 | 0.00 | 0.00 | 0.00 | 78 | 1013.5 |
| 20260507113629 | 46 | 277 | 5.0 | 7.0 | 0.00 | 0.00 | 0.00 | 79 | 1013.6 |
| 20260507113150 | 46 | 259 | 2.0 | 6.0 | 0.00 | 0.00 | 0.00 | 78 | 1013.6 |
| 20260507112633 | 46 | 261 | 2.0 | 6.0 | 0.00 | 0.00 | 0.00 | 78 | 1013.6 |
| 20260507112138 | 46 | 269 | 3.0 | 6.0 | 0.00 | 0.00 | 0.00 | 78 | 1013.6 |
| 20260507111623 | 46 | 235 | 3.0 | 8.0 | 0.00 | 0.00 | 0.00 | 78 | 1013.6 |
| 20260507111124 | 46 | 287 | 3.0 | 8.0 | 0.00 | 0.00 | 0.00 | 78 | 1013.7 |
| 20260507110631 | 46 | 248 | 4.0 | 6.0 | 0.00 | 0.00 | 0.00 | 78 | 1013.7 |
| 20260507110152 | 46 | 238 | 2.0 | 5.0 | 0.00 | 0.00 | 0.00 | 78 | 1013.7 |
| 20260507105635 | 46 | 223 | 2.0 | 7.0 | 0.00 | 0.00 | 0.00 | 77 | 1013.6 |
| 20260507105132 | 46 | 262 | 3.0 | 7.0 | 0.00 | 0.00 | 0.00 | 77 | 1013.5 |
| 20260507104624 | 46 | 250 | 4.0 | 7.0 | 0.00 | 0.00 | 0.00 | 77 | 1013.6 |
| 20260507104126 | 46 | 235 | 3.0 | 7.0 | 0.00 | 0.00 | 0.00 | 77 | 1013.6 |
| 20260507103627 | 46 | 254 | 2.0 | 8.0 | 0.00 | 0.00 | 0.00 | 77 | 1013.6 |
| 20260507103142 | 46 | 264 | 2.0 | 8.0 | 0.00 | 0.00 | 0.00 | 78 | 1013.5 |